$Date,$Time,DM0201B,DM0203B,DM0205B,DM0207B,DM0209B
02/08/99,00:00:01,0,0,0,0,0
02/08/99,00:05:01,96,332,-9,457,960
02/08/99,00:10:01,71,336,-9,462,960
02/08/99,00:15:01,102,305,-9,466,960
02/08/99,00:20:01,69,339,-9,470,960
02/08/99,00:25:01,61,316,-9,493,960
02/08/99,00:30:01,99,310,-9,540,960
02/08/99,00:35:01,77,326,-9,677,960
02/08/99,00:40:01,76,327,-9,469,960
02/08/99,00:45:01,76,314,-9,315,960
02/08/99,00:50:01,65,320,-9,275,960
02/08/99,00:55:01,25,305,-9,263,960
02/08/99,01:00:01,67,314,-9,261,960
02/08/99,01:05:01,12,308,-9,259,960
02/08/99,01:10:01,83,348,-9,255,960
02/08/99,01:15:01,71,336,-9,255,960
02/08/99,01:20:01,81,340,-9,261,960
02/08/99,01:25:01,87,344,-9,273,960
02/08/99,01:30:01,50,322,-9,275,960
02/08/99,01:35:01,66,356,-9,277,960
02/08/99,01:40:01,76,327,-9,293,960
02/08/99,01:45:01,52,349,-9,323,960
02/08/99,01:50:01,73,347,-9,401,960
02/08/99,01:55:01,38,2,-9,347,960
02/08/99,02:00:01,46,356,-9,356,960
02/08/99,02:05:01,49,329,-9,354,960
02/08/99,02:10:01,85,344,-9,353,960
02/08/99,02:15:01,59,343,-9,364,960
02/08/99,02:20:01,86,334,-9,342,958
02/08/99,02:25:01,85,330,-9,319,958
02/08/99,02:30:01,63,324,-9,329,958
02/08/99,02:35:01,73,340,-9,330,958
02/08/99,02:40:01,88,354,-9,389,958
02/08/99,02:45:01,67,358,-9,379,958
02/08/99,02:50:01,88,325,-9,400,958
02/08/99,02:55:01,115,327,-9,383,958
02/08/99,03:00:01,99,337,-7,355,958
02/08/99,03:05:01,88,343,-7,342,958
02/08/99,03:10:01,103,323,-7,318,958
02/08/99,03:15:01,84,333,-7,238,958
02/08/99,03:20:01,73,332,-7,231,958
02/08/99,03:25:01,81,350,-7,251,958
02/08/99,03:30:01,61,350,-7,243,958
02/08/99,03:35:01,90,346,-7,254,958
02/08/99,03:40:01,72,352,-7,265,958
02/08/99,03:45:01,97,347,-7,254,958
02/08/99,03:50:01,67,352,-7,218,958
02/08/99,03:55:01,90,337,-7,209,958
02/08/99,04:00:01,58,319,-7,204,958
02/08/99,04:05:01,57,303,-7,261,958
02/08/99,04:10:01,75,334,-7,282,958
02/08/99,04:15:01,46,333,-7,220,958
02/08/99,04:20:01,61,331,-7,162,958
02/08/99,04:25:01,44,301,-7,130,958
02/08/99,04:30:01,91,357,-7,111,958
02/08/99,04:35:01,50,354,-9,103,958
02/08/99,04:40:01,41,360,-9,107,958
02/08/99,04:45:01,66,341,-9,107,958
02/08/99,04:50:01,44,350,-9,113,958
02/08/99,04:55:01,56,329,-9,119,958
02/08/99,05:00:01,29,359,-9,119,958
02/08/99,05:05:01,58,341,-9,113,958
02/08/99,05:10:01,44,354,-9,117,958
02/08/99,05:15:01,55,345,-9,121,958
02/08/99,05:20:01,60,318,-9,133,958
02/08/99,05:25:01,60,335,-9,147,958
02/08/99,05:30:01,57,328,-9,167,958
02/08/99,05:35:01,56,339,-9,196,958
02/08/99,05:40:01,65,338,-9,215,958
02/08/99,05:45:01,56,338,-9,173,958
02/08/99,05:50:01,62,336,-9,167,958
02/08/99,05:55:01,49,349,-9,183,958
02/08/99,06:00:01,102,339,-9,197,958
02/08/99,06:05:01,66,353,-9,217,958
02/08/99,06:10:01,99,332,-9,264,958
02/08/99,06:15:01,96,325,-9,190,958
02/08/99,06:20:01,121,314,-9,161,958
02/08/99,06:25:01,103,320,-9,155,958
02/08/99,06:30:01,89,310,-9,166,958
02/08/99,06:35:01,78,315,-9,167,958
02/08/99,06:40:01,98,311,-9,149,958
02/08/99,06:45:01,74,300,-9,146,958
02/08/99,06:50:01,95,312,-9,150,958
02/08/99,06:55:01,97,304,-9,154,958
02/08/99,07:00:01,92,304,-9,146,958
02/08/99,07:05:01,84,306,-9,157,958
02/08/99,07:10:01,71,295,-9,138,958
02/08/99,07:15:01,74,300,-9,134,958
02/08/99,07:20:01,78,300,-9,158,958
02/08/99,07:25:01,68,295,-9,149,958
02/08/99,07:30:01,50,305,-9,129,958
02/08/99,07:35:01,51,304,-9,120,958
02/08/99,07:40:01,46,313,-9,128,958
02/08/99,07:45:01,38,358,-9,131,958
02/08/99,07:50:01,51,338,-9,133,958
02/08/99,07:55:01,55,358,-9,125,958
02/08/99,08:00:01,30,351,-9,98,958
02/08/99,08:05:01,44,357,-9,78,958
02/08/99,08:10:01,57,343,-9,80,958
02/08/99,08:15:01,62,343,-9,84,958
02/08/99,08:20:01,80,338,-9,84,958
02/08/99,08:25:01,67,348,-9,84,958
02/08/99,08:30:01,58,348,-9,93,958
02/08/99,08:35:01,44,356,-9,95,958
02/08/99,08:40:01,48,1,-9,89,958
02/08/99,08:45:01,38,358,-9,79,958
02/08/99,08:50:01,26,13,-9,75,958
02/08/99,08:55:01,26,23,-9,75,958
02/08/99,09:00:01,30,23,-9,67,958
02/08/99,09:05:01,20,23,-9,65,958
02/08/99,09:10:01,9,23,-9,67,958
02/08/99,09:15:01,32,11,-9,67,958
02/08/99,09:20:01,32,11,-9,63,958
02/08/99,09:25:01,12,11,-9,61,958
02/08/99,09:30:01,0,35,-9,59,958
02/08/99,09:35:01,0,25,-9,61,958
02/08/99,09:40:01,0,358,-9,65,958
02/08/99,09:45:01,10,246,-9,65,958
02/08/99,09:50:01,10,203,-9,69,958
02/08/99,09:55:01,11,141,-9,69,958
02/08/99,10:00:01,2,299,-9,71,958
02/08/99,10:05:01,0,288,-9,69,958
02/08/99,10:10:01,0,288,-9,63,958
02/08/99,10:15:01,10,199,-9,57,958
02/08/99,10:20:01,0,188,-9,57,958
02/08/99,10:25:01,0,188,-9,59,958
02/08/99,10:30:01,24,188,-9,57,958
02/08/99,10:35:01,49,177,-9,51,958
02/08/99,10:40:01,84,176,-9,47,958
02/08/99,10:45:01,72,176,-9,45,958
02/08/99,10:50:01,91,176,-9,43,958
02/08/99,10:55:01,101,164,-9,39,958
02/08/99,11:00:01,89,164,-9,35,958
02/08/99,11:05:01,92,164,-9,33,958
02/08/99,11:10:01,78,164,-9,31,958
02/08/99,11:15:01,97,164,-9,31,958
02/08/99,11:20:01,88,164,-9,31,958
02/08/99,11:25:01,73,164,-9,31,958
02/08/99,11:30:01,77,164,-9,29,958
02/08/99,11:35:01,82,164,-9,27,958
02/08/99,11:40:01,96,164,-9,23,958
02/08/99,11:45:01,67,155,-9,21,958
02/08/99,11:50:01,64,144,-9,17,958
02/08/99,11:55:01,60,130,-9,17,958
02/08/99,12:00:01,63,126,-9,17,958
02/08/99,12:05:01,40,116,-9,17,958
02/08/99,12:10:01,40,116,-9,17,958
02/08/99,12:15:01,28,116,-9,17,958
02/08/99,12:20:01,7,149,-9,17,958
02/08/99,12:25:01,7,162,-9,17,958
02/08/99,12:30:01,74,155,-9,17,958
02/08/99,12:35:01,60,159,-9,17,958
02/08/99,12:40:01,90,158,-9,17,958
02/08/99,12:45:01,114,173,-9,17,958
02/08/99,12:50:01,139,175,-9,17,958
02/08/99,12:55:01,95,177,-9,13,958
02/08/99,13:00:01,122,176,-9,11,958
02/08/99,13:05:01,119,175,-9,11,958
02/08/99,13:10:01,152,164,-9,11,958
02/08/99,13:15:01,170,164,-9,9,958
02/08/99,13:20:01,168,164,-9,9,958
02/08/99,13:25:01,161,164,-9,11,958
02/08/99,13:30:01,156,174,-9,11,958
02/08/99,13:35:01,164,173,-9,11,958
02/08/99,13:40:01,190,173,-9,11,956
02/08/99,13:45:01,185,173,-9,11,956
02/08/99,13:50:01,191,173,-9,11,956
02/08/99,13:55:01,186,173,-9,11,956
02/08/99,14:00:01,190,173,-9,11,956
02/08/99,14:05:01,165,173,-9,11,956
02/08/99,14:10:01,190,174,-9,11,956
02/08/99,14:15:01,176,174,-9,11,956
02/08/99,14:20:01,158,174,-9,11,956
02/08/99,14:25:01,146,174,-9,11,956
02/08/99,14:30:01,146,174,-9,11,956
02/08/99,14:35:01,184,174,-9,11,956
02/08/99,14:40:01,174,174,-9,11,956
02/08/99,14:45:01,166,174,-9,13,956
02/08/99,14:50:01,173,174,-9,15,956
02/08/99,14:55:01,208,184,-9,17,956
02/08/99,15:00:01,187,170,-9,19,956
02/08/99,15:05:01,183,180,-9,19,956
02/08/99,15:10:01,207,180,-9,21,956
02/08/99,15:15:01,240,173,-9,23,956
02/08/99,15:20:01,218,163,-9,23,956
02/08/99,15:25:01,197,163,-9,23,956
02/08/99,15:30:01,183,163,-9,25,956
02/08/99,15:35:01,202,173,-9,29,956
02/08/99,15:40:01,153,173,-9,37,956
02/08/99,15:45:01,147,173,-9,41,956
02/08/99,15:50:01,129,173,-9,47,956
02/08/99,15:55:01,180,173,-9,49,956
02/08/99,16:00:01,141,173,-9,53,956
02/08/99,16:05:01,181,179,-9,53,956
02/08/99,16:10:01,148,179,-9,53,956
02/08/99,16:15:01,148,177,-9,49,956
02/08/99,16:20:01,184,187,-9,45,956
02/08/99,16:25:01,211,177,-9,45,956
02/08/99,16:30:01,177,177,-9,45,956
02/08/99,16:35:01,198,177,-9,47,956
02/08/99,16:40:01,189,177,-9,47,956
02/08/99,16:45:01,209,177,-9,45,956
02/08/99,16:50:01,222,176,-11,47,956
02/08/99,16:55:01,195,176,-11,51,956
02/08/99,17:00:01,202,176,-11,55,956
02/08/99,17:05:01,193,176,-11,63,956
02/08/99,17:10:01,219,176,-11,69,956
02/08/99,17:15:01,188,176,-11,73,956
02/08/99,17:20:01,180,176,-11,79,956
02/08/99,17:25:01,258,176,-11,83,956
02/08/99,17:30:01,213,176,-11,89,956
02/08/99,17:35:01,215,176,-11,89,956
02/08/99,17:40:01,163,176,-11,91,956
02/08/99,17:45:01,236,176,-11,91,956
02/08/99,17:50:01,218,169,-11,101,956
02/08/99,17:55:01,341,165,-11,81,956
02/08/99,18:00:01,265,174,-11,79,956
02/08/99,18:05:01,290,174,-11,83,956
02/08/99,18:10:01,256,174,-11,87,956
02/08/99,18:15:01,262,174,-11,91,956
02/08/99,18:20:01,215,174,-11,100,956
02/08/99,18:25:01,218,174,-11,100,956
02/08/99,18:30:01,208,174,-11,102,956
02/08/99,18:35:01,204,167,-11,106,956
02/08/99,18:40:01,218,179,-11,114,956
02/08/99,18:45:01,201,168,-11,122,956
02/08/99,18:50:01,275,164,-11,126,956
02/08/99,18:55:01,276,164,-11,132,956
02/08/99,19:00:01,284,174,-11,119,956
02/08/99,19:05:01,226,174,-11,120,956
02/08/99,19:10:01,251,174,-11,123,956
02/08/99,19:15:01,192,175,-11,111,956
02/08/99,19:20:01,221,172,-11,100,956
02/08/99,19:25:01,233,172,-11,110,956
02/08/99,19:30:01,187,172,-11,118,956
02/08/99,19:35:01,184,182,-11,120,956
02/08/99,19:40:01,117,191,-11,122,956
02/08/99,19:45:01,168,173,-11,114,956
02/08/99,19:50:01,290,173,-11,112,956
02/08/99,19:55:01,256,173,-11,110,956
02/08/99,20:00:01,249,173,-11,102,956
02/08/99,20:05:01,227,173,-11,98,956
02/08/99,20:10:01,252,173,-11,89,956
02/08/99,20:15:01,226,163,-11,91,956
02/08/99,20:20:01,244,171,-11,95,956
02/08/99,20:25:01,241,160,-11,107,956
02/08/99,20:30:01,238,164,-11,125,956
02/08/99,20:35:01,276,163,-11,146,956
02/08/99,20:40:01,312,173,-11,146,956
02/08/99,20:45:01,261,185,-11,144,956
02/08/99,20:50:01,323,168,-11,144,956
02/08/99,20:55:01,304,178,-11,148,956
02/08/99,21:00:01,275,173,-11,148,956
02/08/99,21:05:01,306,166,-11,146,956
02/08/99,21:10:01,282,166,-11,150,956
02/08/99,21:15:01,183,166,-11,144,956
02/08/99,21:20:01,216,161,-11,144,956
02/08/99,21:25:01,330,173,-11,177,956
02/08/99,21:30:01,385,173,-11,174,956
02/08/99,21:35:01,380,173,-11,198,956
02/08/99,21:40:01,252,173,-11,207,956
02/08/99,21:45:01,208,183,-11,211,956
02/08/99,21:50:01,329,181,-11,229,956
02/08/99,21:55:01,350,176,-11,223,956
02/08/99,22:00:01,255,164,-11,215,956
02/08/99,22:05:01,272,175,-11,205,956
02/08/99,22:10:01,298,178,-11,177,956
02/08/99,22:15:01,264,166,-11,150,956
02/08/99,22:20:01,259,179,-11,140,956
02/08/99,22:25:01,255,167,-11,138,956
02/08/99,22:30:01,345,167,-11,142,956
02/08/99,22:35:01,285,166,-11,138,956
02/08/99,22:40:01,291,172,-11,138,956
02/08/99,22:45:01,300,178,-11,142,956
02/08/99,22:50:01,277,168,-11,157,956
02/08/99,22:55:01,301,168,-11,171,956
02/08/99,23:00:01,307,169,-9,156,956
02/08/99,23:05:01,346,169,-9,171,956
02/08/99,23:10:01,285,169,-9,200,956
02/08/99,23:15:01,310,169,-9,262,956
02/08/99,23:20:01,301,169,-9,283,956
02/08/99,23:25:01,285,163,-9,293,956
02/08/99,23:30:01,247,173,-9,299,956
02/08/99,23:35:01,255,160,-9,257,956
02/08/99,23:40:01,240,171,-9,240,956
02/08/99,23:45:01,265,171,-9,212,956
02/08/99,23:50:01,323,171,-9,189,956
02/08/99,23:55:01,274,171,-9,190,956
02/09/99,00:00:01,275,171,-9,230,956
